Time,TemperatureF,DewpointF,PressureIn,WindDirection,WindDirectionDegrees,WindSpeedMPH,WindSpeedGustMPH,Humidity,HourlyPrecipIn,Conditions,Clouds,dailyrainin,SoftwareType,DateUTC
2013-03-26 00:00:00,27.8,24.2,29.71,NNW,338,1.0,3.0,86,0.00,,,0.00,Wunderground v.1.15,2013-03-26 04:00:00,
2013-03-26 00:10:00,27.5,23.9,29.71,NNW,338,1.0,1.0,86,0.00,,,0.00,Wunderground v.1.15,2013-03-26 04:10:00,
2013-03-26 00:20:00,27.6,23.7,29.70,NNW,337,1.0,1.0,85,0.00,,,0.00,Wunderground v.1.15,2013-03-26 04:20:00,
2013-03-26 00:30:00,27.6,23.4,29.70,NNW,327,2.0,2.0,84,0.00,,,0.00,Wunderground v.1.15,2013-03-26 04:30:00,
2013-03-26 00:40:00,27.8,23.3,29.70,NW,326,3.0,3.0,83,0.00,,,0.00,Wunderground v.1.15,2013-03-26 04:40:00,
2013-03-26 00:50:00,27.4,22.9,29.70,NW,326,2.0,3.0,83,0.00,,,0.00,Wunderground v.1.15,2013-03-26 04:50:00,
2013-03-26 01:10:00,27.2,22.4,29.69,NW,324,4.0,5.0,82,0.00,,,0.00,Wunderground v.1.15,2013-03-26 05:10:00,
2013-03-26 01:20:00,27.0,22.2,29.69,NW,323,4.0,9.0,82,0.00,,,0.00,Wunderground v.1.15,2013-03-26 05:20:00,
2013-03-26 01:30:00,27.1,22.3,29.69,NW,317,4.0,4.0,82,0.00,,,0.00,Wunderground v.1.15,2013-03-26 05:30:00,
2013-03-26 01:40:00,27.2,22.7,29.69,NNW,327,5.0,5.0,83,0.00,,,0.00,Wunderground v.1.15,2013-03-26 05:40:00,
2013-03-26 01:50:00,27.2,22.4,29.69,NNW,335,4.0,4.0,82,0.00,,,0.00,Wunderground v.1.15,2013-03-26 05:50:00,
2013-03-26 02:00:00,26.9,22.1,29.68,NW,323,4.0,4.0,82,0.00,,,0.00,Wunderground v.1.15,2013-03-26 06:00:00,
2013-03-26 02:10:00,26.3,21.8,29.68,NNW,333,3.0,3.0,83,0.00,,,0.00,Wunderground v.1.15,2013-03-26 06:10:00,
2013-03-26 02:20:00,26.2,21.7,29.68,NNW,333,4.0,5.0,83,0.00,,,0.00,Wunderground v.1.15,2013-03-26 06:20:00,
2013-03-26 02:30:00,25.9,21.7,29.68,NNW,328,4.0,7.0,84,0.00,,,0.00,Wunderground v.1.15,2013-03-26 06:30:00,
2013-03-26 02:40:00,26.2,22.0,29.67,NW,323,5.0,6.0,84,0.00,,,0.00,Wunderground v.1.15,2013-03-26 06:40:00,
2013-03-26 02:50:00,26.2,22.0,29.67,NNW,336,5.0,6.0,84,0.00,,,0.00,Wunderground v.1.15,2013-03-26 06:50:00,
2013-03-26 03:00:00,26.3,22.1,29.67,NW,322,5.0,5.0,84,0.00,,,0.00,Wunderground v.1.15,2013-03-26 07:00:00,
2013-03-26 03:10:00,26.3,22.1,29.66,NW,318,5.0,5.0,84,0.00,,,0.00,Wunderground v.1.15,2013-03-26 07:10:00,
2013-03-26 03:20:00,26.4,22.2,29.66,NW,314,6.0,6.0,84,0.00,,,0.00,Wunderground v.1.15,2013-03-26 07:20:00,
2013-03-26 03:30:00,26.4,22.5,29.66,NW,322,6.0,6.0,85,0.00,,,0.00,Wunderground v.1.15,2013-03-26 07:30:00,
2013-03-26 03:40:00,26.4,22.5,29.66,NNW,334,6.0,6.0,85,0.00,,,0.00,Wunderground v.1.15,2013-03-26 07:40:00,
2013-03-26 03:50:00,26.3,22.7,29.66,NW,319,6.0,6.0,86,0.00,,,0.00,Wunderground v.1.15,2013-03-26 07:50:00,
2013-03-26 04:10:00,26.1,22.5,29.65,NNW,340,5.0,5.0,86,0.00,,,0.00,Wunderground v.1.15,2013-03-26 08:10:00,
2013-03-26 04:20:00,26.0,22.4,29.65,NNW,329,5.0,5.0,86,0.00,,,0.00,Wunderground v.1.15,2013-03-26 08:20:00,
2013-03-26 04:30:00,25.8,22.5,29.65,NNW,343,5.0,5.0,87,0.00,,,0.00,Wunderground v.1.15,2013-03-26 08:30:00,
2013-03-26 04:40:00,25.7,22.6,29.65,NNW,328,5.0,5.0,88,0.00,,,0.00,Wunderground v.1.15,2013-03-26 08:40:00,
2013-03-26 04:50:00,25.8,22.7,29.65,NW,321,6.0,7.0,88,0.00,,,0.00,Wunderground v.1.15,2013-03-26 08:50:00,
2013-03-26 05:00:00,25.7,22.6,29.65,NNW,340,5.0,5.0,88,0.00,,,0.00,Wunderground v.1.15,2013-03-26 09:00:00,
2013-03-26 05:10:00,25.7,22.9,29.65,NNW,336,4.0,7.0,89,0.00,,,0.00,Wunderground v.1.15,2013-03-26 09:10:00,
2013-03-26 05:20:00,26.0,23.2,29.65,NNW,339,6.0,6.0,89,0.00,,,0.00,Wunderground v.1.15,2013-03-26 09:20:00,
2013-03-26 05:30:00,26.2,23.4,29.65,NW,323,6.0,6.0,89,0.00,,,0.00,Wunderground v.1.15,2013-03-26 09:30:00,
2013-03-26 05:40:00,26.5,24.0,29.65,NNW,329,5.0,5.0,90,0.00,,,0.00,Wunderground v.1.15,2013-03-26 09:40:00,
2013-03-26 05:50:00,26.5,24.0,29.65,NNW,329,5.0,5.0,90,0.00,,,0.00,Wunderground v.1.15,2013-03-26 09:50:00,
2013-03-26 06:00:00,26.8,24.3,29.65,NNW,346,5.0,5.0,90,0.00,,,0.00,Wunderground v.1.15,2013-03-26 10:00:00,
2013-03-26 06:10:00,27.1,24.8,29.65,NNW,336,5.0,5.0,91,0.00,,,0.00,Wunderground v.1.15,2013-03-26 10:10:00,
2013-03-26 06:20:00,27.5,25.2,29.65,NNW,327,5.0,5.0,91,0.00,,,0.00,Wunderground v.1.15,2013-03-26 10:20:00,
2013-03-26 06:30:00,27.8,25.5,29.65,NW,326,5.0,5.0,91,0.00,,,0.00,Wunderground v.1.15,2013-03-26 10:30:00,
2013-03-26 06:40:00,28.0,25.7,29.65,NW,313,5.0,6.0,91,0.00,,,0.00,Wunderground v.1.15,2013-03-26 10:40:00,
2013-03-26 06:50:00,28.2,25.9,29.64,NNW,346,6.0,6.0,91,0.00,,,0.00,Wunderground v.1.15,2013-03-26 10:50:00,
2013-03-26 07:00:00,28.6,26.3,29.64,NNW,337,6.0,6.0,91,0.00,,,0.00,Wunderground v.1.15,2013-03-26 11:00:00,
2013-03-26 07:10:00,28.8,26.5,29.64,NW,325,6.0,7.0,91,0.00,,,0.00,Wunderground v.1.15,2013-03-26 11:10:00,
2013-03-26 07:20:00,28.9,26.6,29.64,NNW,345,5.0,6.0,91,0.00,,,0.00,Wunderground v.1.15,2013-03-26 11:20:00,
2013-03-26 07:30:00,29.2,26.6,29.64,NNW,333,6.0,6.0,90,0.00,,,0.00,Wunderground v.1.15,2013-03-26 11:30:00,
2013-03-26 07:40:00,29.3,26.7,29.64,NNW,341,5.0,5.0,90,0.00,,,0.00,Wunderground v.1.15,2013-03-26 11:40:00,
2013-03-26 07:50:00,29.5,26.9,29.64,NW,326,5.0,5.0,90,0.00,,,0.00,Wunderground v.1.15,2013-03-26 11:50:00,
2013-03-26 08:00:00,29.7,27.1,29.64,North,355,5.0,5.0,90,0.00,,,0.00,Wunderground v.1.15,2013-03-26 12:00:00,
2013-03-26 08:10:00,30.0,27.4,29.64,NNW,332,5.0,5.0,90,0.00,,,0.00,Wunderground v.1.15,2013-03-26 12:10:00,
2013-03-26 08:20:00,30.6,28.0,29.65,NNW,345,6.0,6.0,90,0.00,,,0.00,Wunderground v.1.15,2013-03-26 12:20:00,
2013-03-26 08:30:00,31.3,28.4,29.64,NNW,327,7.0,7.0,89,0.00,,,0.00,Wunderground v.1.15,2013-03-26 12:30:00,
2013-03-26 08:40:00,31.8,28.7,29.64,NNW,344,8.0,8.0,88,0.00,,,0.00,Wunderground v.1.15,2013-03-26 12:40:00,
2013-03-26 08:50:00,32.3,28.9,29.64,NNW,333,6.0,8.0,87,0.00,,,0.00,Wunderground v.1.15,2013-03-26 12:50:00,
2013-03-26 09:00:00,33.2,29.5,29.64,NNW,346,7.0,7.0,86,0.00,,,0.00,Wunderground v.1.15,2013-03-26 13:00:00,
2013-03-26 09:10:00,33.5,29.5,29.64,NNW,333,7.0,10.0,85,0.00,,,0.00,Wunderground v.1.15,2013-03-26 13:10:00,
2013-03-26 09:20:00,33.9,29.6,29.64,NNW,346,9.0,9.0,84,0.00,,,0.00,Wunderground v.1.15,2013-03-26 13:20:00,
2013-03-26 09:30:00,34.4,29.8,29.64,North,355,10.0,11.0,83,0.00,,,0.00,Wunderground v.1.15,2013-03-26 13:30:00,
2013-03-26 09:40:00,34.6,29.4,29.63,NNW,348,11.0,13.0,81,0.00,,,0.00,Wunderground v.1.15,2013-03-26 13:40:00,
2013-03-26 09:50:00,35.0,29.8,29.64,NNW,344,11.0,13.0,81,0.00,,,0.00,Wunderground v.1.15,2013-03-26 13:50:00,
2013-03-26 10:00:00,35.7,29.8,29.64,North,5,11.0,14.0,79,0.00,,,0.00,Wunderground v.1.15,2013-03-26 14:00:00,
2013-03-26 10:10:00,36.0,29.8,29.63,North,350,14.0,14.0,78,0.00,,,0.00,Wunderground v.1.15,2013-03-26 14:10:00,
2013-03-26 10:20:00,36.2,30.0,29.64,North,11,11.0,12.0,78,0.00,,,0.00,Wunderground v.1.15,2013-03-26 14:20:00,
2013-03-26 10:30:00,35.9,30.3,29.64,North,9,11.0,18.0,80,0.00,,,0.00,Wunderground v.1.15,2013-03-26 14:30:00,
2013-03-26 10:40:00,35.5,29.9,29.63,NW,318,11.0,11.0,80,0.00,,,0.00,Wunderground v.1.15,2013-03-26 14:40:00,
2013-03-26 10:50:00,35.6,30.3,29.63,NNW,343,8.0,8.0,81,0.00,,,0.00,Wunderground v.1.15,2013-03-26 14:50:00,
2013-03-26 11:00:00,35.9,30.3,29.63,NNW,327,10.0,10.0,80,0.00,,,0.00,Wunderground v.1.15,2013-03-26 15:00:00,
2013-03-26 11:10:00,36.1,30.2,29.63,NW,306,9.0,9.0,79,0.00,,,0.00,Wunderground v.1.15,2013-03-26 15:10:00,
2013-03-26 11:20:00,36.2,30.0,29.63,NNW,334,10.0,10.0,78,0.00,,,0.00,Wunderground v.1.15,2013-03-26 15:20:00,
2013-03-26 11:30:00,36.5,30.3,29.63,North,9,10.0,10.0,78,0.00,,,0.00,Wunderground v.1.15,2013-03-26 15:30:00,
2013-03-26 11:40:00,36.9,30.7,29.63,NW,321,8.0,8.0,78,0.00,,,0.00,Wunderground v.1.15,2013-03-26 15:40:00,
2013-03-26 11:50:00,37.0,30.5,29.63,NNW,348,9.0,12.0,77,0.00,,,0.00,Wunderground v.1.15,2013-03-26 15:50:00,
2013-03-26 12:00:00,37.0,30.5,29.63,NW,308,10.0,13.0,77,0.00,,,0.00,Wunderground v.1.15,2013-03-26 16:00:00,
2013-03-26 12:10:00,37.4,30.2,29.62,NW,323,11.0,11.0,75,0.00,,,0.00,Wunderground v.1.15,2013-03-26 16:10:00,
2013-03-26 12:20:00,37.3,30.1,29.62,NW,320,11.0,11.0,75,0.00,,,0.00,Wunderground v.1.15,2013-03-26 16:20:00,
2013-03-26 12:30:00,37.3,30.4,29.62,North,350,11.0,11.0,76,0.00,,,0.00,Wunderground v.1.15,2013-03-26 16:30:00,
2013-03-26 12:40:00,37.6,30.4,29.62,NNW,342,10.0,11.0,75,0.00,,,0.00,Wunderground v.1.15,2013-03-26 16:40:00,
2013-03-26 12:50:00,37.8,30.3,29.62,NW,309,10.0,11.0,74,0.00,,,0.00,Wunderground v.1.15,2013-03-26 16:50:00,
2013-03-26 13:00:00,37.5,30.0,29.62,NW,314,11.0,11.0,74,0.00,,,0.00,Wunderground v.1.15,2013-03-26 17:00:00,
2013-03-26 13:10:00,36.9,29.7,29.62,WNW,301,11.0,11.0,75,0.00,,,0.00,Wunderground v.1.15,2013-03-26 17:10:00,
2013-03-26 13:20:00,36.9,30.0,29.62,NNW,327,10.0,10.0,76,0.00,,,0.00,Wunderground v.1.15,2013-03-26 17:20:00,
2013-03-26 13:30:00,36.8,29.9,29.63,NW,319,12.0,12.0,76,0.00,,,0.00,Wunderground v.1.15,2013-03-26 17:30:00,
2013-03-26 13:40:00,37.1,30.2,29.63,NNW,341,9.0,9.0,76,0.00,,,0.00,Wunderground v.1.15,2013-03-26 17:40:00,
2013-03-26 13:50:00,37.0,30.5,29.64,NNW,332,12.0,13.0,77,0.00,,,0.00,Wunderground v.1.15,2013-03-26 17:50:00,
2013-03-26 14:00:00,37.0,30.5,29.63,WNW,289,11.0,11.0,77,0.00,,,0.00,Wunderground v.1.15,2013-03-26 18:00:00,
2013-03-26 14:10:00,36.4,30.5,29.63,NNW,338,11.0,11.0,79,0.00,,,0.00,Wunderground v.1.15,2013-03-26 18:10:00,
2013-03-26 14:20:00,36.4,30.5,29.63,NNW,340,12.0,12.0,79,0.00,,,0.00,Wunderground v.1.15,2013-03-26 18:20:00,
2013-03-26 14:30:00,36.4,30.5,29.63,NW,319,12.0,12.0,79,0.00,,,0.00,Wunderground v.1.15,2013-03-26 18:30:00,
2013-03-26 14:40:00,36.3,30.1,29.64,NW,316,10.0,15.0,78,0.00,,,0.00,Wunderground v.1.15,2013-03-26 18:40:00,
2013-03-26 14:50:00,36.5,30.0,29.64,NW,314,12.0,12.0,77,0.00,,,0.00,Wunderground v.1.15,2013-03-26 18:50:00,
2013-03-26 15:00:00,36.5,30.3,29.63,North,355,12.0,12.0,78,0.00,,,0.00,Wunderground v.1.15,2013-03-26 19:00:00,
2013-03-26 15:10:00,36.5,30.0,29.64,NW,317,13.0,18.0,77,0.00,,,0.00,Wunderground v.1.15,2013-03-26 19:10:00,
2013-03-26 15:20:00,36.4,29.9,29.63,NNW,336,12.0,12.0,77,0.00,,,0.00,Wunderground v.1.15,2013-03-26 19:20:00,
2013-03-26 15:30:00,36.6,30.1,29.63,NW,314,12.0,14.0,77,0.00,,,0.00,Wunderground v.1.15,2013-03-26 19:30:00,
2013-03-26 15:40:00,36.5,30.0,29.64,NW,321,12.0,17.0,77,0.00,,,0.00,Wunderground v.1.15,2013-03-26 19:40:00,
2013-03-26 15:50:00,36.2,29.7,29.63,NW,318,13.0,15.0,77,0.00,,,0.00,Wunderground v.1.15,2013-03-26 19:50:00,
2013-03-26 16:00:00,36.2,30.0,29.64,NNW,329,12.0,12.0,78,0.00,,,0.00,Wunderground v.1.15,2013-03-26 20:00:00,
2013-03-26 16:10:00,36.1,29.9,29.64,NNW,348,13.0,20.0,78,0.00,,,0.00,Wunderground v.1.15,2013-03-26 20:10:00,
2013-03-26 16:20:00,36.2,30.0,29.64,WNW,290,12.0,12.0,78,0.00,,,0.00,Wunderground v.1.15,2013-03-26 20:20:00,
2013-03-26 16:40:00,36.2,30.0,29.64,NW,314,10.0,16.0,78,0.00,,,0.00,Wunderground v.1.15,2013-03-26 20:40:00,
2013-03-26 16:50:00,36.1,29.6,29.65,North,355,10.0,14.0,77,0.00,,,0.00,Wunderground v.1.15,2013-03-26 20:50:00,
2013-03-26 17:00:00,36.1,29.9,29.65,NW,315,10.0,12.0,78,0.00,,,0.00,Wunderground v.1.15,2013-03-26 21:00:00,
2013-03-26 17:10:00,35.9,29.7,29.65,NW,321,10.0,10.0,78,0.00,,,0.00,Wunderground v.1.15,2013-03-26 21:10:00,
2013-03-26 17:20:00,35.9,29.4,29.65,NW,314,10.0,10.0,77,0.00,,,0.00,Wunderground v.1.15,2013-03-26 21:20:00,
2013-03-26 17:30:00,36.0,29.2,29.65,North,355,11.0,12.0,76,0.00,,,0.00,Wunderground v.1.15,2013-03-26 21:30:00,
2013-03-26 17:40:00,35.9,29.4,29.65,NNW,334,10.0,10.0,77,0.00,,,0.00,Wunderground v.1.15,2013-03-26 21:40:00,
2013-03-26 17:50:00,35.7,29.5,29.66,NW,321,9.0,9.0,78,0.00,,,0.00,Wunderground v.1.15,2013-03-26 21:50:00,
2013-03-26 18:00:00,35.2,30.3,29.66,North,355,12.0,12.0,82,0.00,,,0.00,Wunderground v.1.15,2013-03-26 22:00:00,
2013-03-26 18:10:00,34.8,30.2,29.67,WNW,303,10.0,10.0,83,0.00,,,0.00,Wunderground v.1.15,2013-03-26 22:10:00,
2013-03-26 18:20:00,34.5,30.2,29.67,NNW,346,10.0,10.0,84,0.00,,,0.00,Wunderground v.1.15,2013-03-26 22:20:00,
2013-03-26 18:30:00,34.4,30.4,29.67,NW,325,7.0,7.0,85,0.00,,,0.00,Wunderground v.1.15,2013-03-26 22:30:00,
2013-03-26 18:40:00,34.2,30.7,29.67,NW,322,5.0,5.0,87,0.00,,,0.00,Wunderground v.1.15,2013-03-26 22:40:00,
2013-03-26 18:50:00,33.9,30.7,29.67,WNW,301,6.0,6.0,88,0.00,,,0.00,Wunderground v.1.15,2013-03-26 22:50:00,
2013-03-26 19:10:00,33.4,30.5,29.67,NW,308,6.0,6.0,89,0.00,,,0.00,Wunderground v.1.15,2013-03-26 23:10:00,
2013-03-26 19:20:00,33.1,30.5,29.67,NW,319,6.0,7.0,90,0.00,,,0.00,Wunderground v.1.15,2013-03-26 23:20:00,
2013-03-26 19:40:00,32.9,30.6,29.68,NW,310,6.0,6.0,91,0.00,,,0.00,Wunderground v.1.15,2013-03-26 23:40:00,
2013-03-26 19:50:00,32.9,30.6,29.68,WNW,285,6.0,6.0,91,0.00,,,0.00,Wunderground v.1.15,2013-03-26 23:50:00,
2013-03-26 20:00:00,32.9,30.6,29.68,NW,311,7.0,7.0,91,0.00,,,0.00,Wunderground v.1.15,2013-03-27 00:00:00,
2013-03-26 20:10:00,32.9,30.6,29.68,WNW,288,7.0,7.0,91,0.00,,,0.00,Wunderground v.1.15,2013-03-27 00:10:00,
2013-03-26 20:20:00,33.0,30.7,29.68,WNW,293,7.0,11.0,91,0.00,,,0.00,Wunderground v.1.15,2013-03-27 00:20:00,
2013-03-26 20:30:00,32.9,30.6,29.68,NW,306,6.0,6.0,91,0.00,,,0.00,Wunderground v.1.15,2013-03-27 00:30:00,
2013-03-26 20:40:00,33.0,30.7,29.68,WNW,296,7.0,7.0,91,0.00,,,0.00,Wunderground v.1.15,2013-03-27 00:40:00,
2013-03-26 20:50:00,33.0,30.7,29.68,NNW,345,7.0,7.0,91,0.00,,,0.00,Wunderground v.1.15,2013-03-27 00:50:00,
2013-03-26 21:00:00,33.0,30.7,29.68,NW,317,7.0,11.0,91,0.00,,,0.00,Wunderground v.1.15,2013-03-27 01:00:00,
2013-03-26 21:10:00,32.9,30.8,29.68,NW,315,7.0,7.0,92,0.00,,,0.00,Wunderground v.1.15,2013-03-27 01:10:00,
2013-03-26 21:20:00,32.9,30.8,29.68,WNW,284,7.0,10.0,92,0.00,,,0.00,Wunderground v.1.15,2013-03-27 01:20:00,
2013-03-26 21:30:00,32.8,31.0,29.68,WNW,298,7.0,7.0,93,0.00,,,0.00,Wunderground v.1.15,2013-03-27 01:30:00,
2013-03-26 21:40:00,32.8,31.0,29.68,WNW,288,7.0,7.0,93,0.00,,,0.00,Wunderground v.1.15,2013-03-27 01:40:00,
2013-03-26 21:50:00,32.8,31.0,29.67,NW,306,7.0,7.0,93,0.00,,,0.00,Wunderground v.1.15,2013-03-27 01:50:00,
2013-03-26 22:00:00,32.8,31.3,29.67,WNW,296,7.0,7.0,94,0.00,,,0.00,Wunderground v.1.15,2013-03-27 02:00:00,
2013-03-26 22:10:00,32.9,31.4,29.67,WNW,289,7.0,9.0,94,0.00,,,0.00,Wunderground v.1.15,2013-03-27 02:10:00,
2013-03-26 22:20:00,33.0,31.5,29.67,WNW,296,8.0,8.0,94,0.00,,,0.00,Wunderground v.1.15,2013-03-27 02:20:00,
2013-03-26 22:30:00,33.0,31.5,29.67,NW,310,7.0,7.0,94,0.00,,,0.00,Wunderground v.1.15,2013-03-27 02:30:00,
2013-03-26 22:40:00,32.9,31.4,29.67,NW,321,7.0,8.0,94,0.00,,,0.00,Wunderground v.1.15,2013-03-27 02:40:00,
2013-03-26 22:50:00,32.9,31.4,29.67,WNW,294,7.0,7.0,94,0.00,,,0.00,Wunderground v.1.15,2013-03-27 02:50:00,
2013-03-26 23:00:00,32.9,31.4,29.67,WNW,292,8.0,8.0,94,0.00,,,0.00,Wunderground v.1.15,2013-03-27 03:00:00,
2013-03-26 23:10:00,32.9,31.4,29.67,WNW,295,7.0,7.0,94,0.00,,,0.00,Wunderground v.1.15,2013-03-27 03:10:00,
2013-03-26 23:20:00,32.9,31.6,29.67,NW,317,6.0,6.0,95,0.00,,,0.00,Wunderground v.1.15,2013-03-27 03:20:00,
2013-03-26 23:30:00,32.9,31.4,29.67,NW,311,6.0,7.0,94,0.00,,,0.00,Wunderground v.1.15,2013-03-27 03:30:00,
2013-03-26 23:40:00,32.9,31.6,29.67,WNW,294,6.0,7.0,95,0.00,,,0.00,Wunderground v.1.15,2013-03-27 03:40:00,
2013-03-26 23:50:00,32.9,31.6,29.67,NW,313,7.0,7.0,95,0.00,,,0.00,Wunderground v.1.15,2013-03-27 03:50:00,